Home > Weather > Hannover > Past weeks

Flag for Germany Weather for the Past 2 Weeks in Hannover, Lower Saxony, Germany

Now
41 °F

Clear.


Feels Like: 41 °F
Forecast: 39 / 56 °F
Wind: No wind

Location: Hannover

Current Time: Apr 30, 2016 at 1:52:56 AM

Latest Report: Apr 30, 2016 at 1:20 AM


Visibility: 10 mi

Pressure: 30.01 "Hg

Humidity: 93%

Dew Point: 39 °F

Location of HannoverLocation

Historic Weather in Hannover — Graph

°F

Hannover Temperature Yesterday

Maximum temperature yesterday: 57 °F (at 4:20 PM)
Minimum temperature yesterday: 36 °F (at 4:20 AM)
Average temperature yesterday: 47 °F

High & Low Weather Summary for the Past Weeks

 TemperatureHumidityPressure
High59 °F (Apr 16, 2:50 PM)100% (Apr 16, 12:20 AM)30.45 "Hg (Apr 16, 12:20 AM)
Low30 °F (Apr 25, 1:20 AM)34% (Apr 21, 4:20 PM)29.42 "Hg (Apr 26, 10:50 AM)
Average44 °F77%29.89 "Hg
* Reported Apr 15 1:20 AM — Apr 30 1:20 AM, Hannover, Weather by CustomWeather, © 2016

Note: Actual official high and low records may vary slightly from our data, if they occured in-between our weather recording intervals... More about our weather records

Advertising

Hannover Weather History for the Previous 24 Hours

Scroll right to see more
 ConditionsComfort  
Time TempWeatherWind HumidityBarometerVisibility
1:20 AM
Sat, Apr 30
41 °FClear.No wind93%30.01 "Hg10 mi
12:20 AM43 °FClear.1 mph93%30.01 "Hg10 mi
11:50 PM
Fri, Apr 29
45 °FPassing clouds.3 mph87%30.01 "HgN/A
11:20 PM45 °FPassing clouds.6 mph87%30.01 "HgN/A
10:50 PM48 °FPassing clouds.5 mph62%30.01 "HgN/A
10:20 PM50 °FClear.10 mph58%30.01 "Hg10 mi
9:50 PM50 °FClear.9 mph58%30.01 "Hg10 mi
9:20 PM52 °FSunny.9 mph50%30.01 "Hg10 mi
8:50 PM52 °FSunny.9 mph50%29.98 "Hg10 mi
8:20 PM54 °FSunny.12 mph47%29.98 "Hg10 mi
7:50 PM54 °FSunny.10 mph47%29.98 "Hg10 mi
7:20 PM54 °FSunny.15 mph47%29.98 "Hg10 mi
6:50 PM54 °FSunny.14 mph47%29.98 "Hg10 mi
6:20 PM55 °FSunny.17 mph44%29.98 "Hg10 mi
5:50 PM55 °FPassing clouds.18 mph44%29.98 "HgN/A
5:20 PM55 °FPassing clouds.16 mph44%29.98 "HgN/A
4:50 PM57 °FSunny.17 mph44%29.95 "Hg10 mi
4:20 PM57 °FPassing clouds.16 mph41%29.95 "HgN/A
3:50 PM55 °FSunny.20 mph44%29.95 "Hg10 mi
3:20 PM55 °FPassing clouds.17 mph47%29.95 "HgN/A
2:50 PM55 °FSunny.17 mph44%29.95 "Hg10 mi
2:20 PM54 °FBroken clouds.17 mph47%29.95 "HgN/A
1:50 PM54 °FBroken clouds.18 mph47%29.95 "HgN/A
1:20 PM54 °FPartly sunny.18 mph51%29.95 "HgN/A
12:50 PM54 °FPartly sunny.20 mph47%29.95 "HgN/A
12:20 PM54 °FPartly sunny.22 mph44%29.95 "HgN/A
11:50 AM54 °FPartly sunny.20 mph51%29.95 "HgN/A
11:20 AM54 °FPartly sunny.21 mph54%29.95 "HgN/A
10:50 AM52 °FPartly sunny.20 mph50%29.95 "HgN/A
10:20 AM50 °FSunny.17 mph62%29.95 "Hg10 mi
9:50 AM48 °FSunny.14 mph66%29.98 "Hg10 mi
9:20 AM46 °FSunny.14 mph66%29.98 "Hg10 mi
8:50 AM43 °FSunny.13 mph76%29.98 "Hg10 mi
8:20 AM43 °FSunny.13 mph76%29.98 "Hg10 mi
7:50 AM41 °FSunny.12 mph81%29.98 "Hg10 mi
7:20 AM39 °FSunny.13 mph87%29.98 "Hg10 mi
6:50 AM39 °FClear.10 mph87%29.95 "Hg10 mi
6:20 AM37 °FClear.9 mph93%29.95 "Hg10 mi
5:50 AM37 °FClear.10 mph87%29.98 "Hg10 mi
5:20 AM36 °FClear.7 mph93%29.98 "Hg10 mi
4:20 AM36 °FClear.6 mph93%29.98 "Hg10 mi
3:50 AM37 °FClear.8 mph93%29.98 "Hg10 mi
3:20 AM37 °FClear.7 mph87%29.98 "Hg10 mi
2:50 AM37 °FClear.7 mph87%29.98 "Hg10 mi
2:20 AM37 °FClear.5 mph87%29.98 "Hg10 mi
1:50 AM37 °FClear.7 mph87%29.98 "Hg10 mi
1:20 AM39 °FClear.7 mph87%29.98 "Hg10 mi
Weather by CustomWeather, © 2016

See weather overviewHow to use our weather pages